Location: Faicchio
(41.2833°N, 14.4833°E)
Time: 06:48:01
(UTC+00:00)

Cosmos 1553 Rocket - Pass Details

Date: 15 June 2025
Orbit: 940 x 1007 km, 82.9° (Epoch: 16 July)

Event Time Altitude Azimuth Distance (km) Brightness Sun altitude
Rises 02:16:58 0° 345° (NNW) 3,612 7.4 -11.3°
Reaches altitude 10° 02:19:34 10° 338° (NNW) 2,665 6.6 -10.9°
Maximum altitude 02:25:11 41° 271° (W) 1,350 4.4 -10.2°
Drops below altitude 10° 02:30:48 10° 203° (SSW) 2,668 5.7 -9.4°
Enters shadow 02:31:18 - 202° (SSW) 2,845 5.9 -9.3°
